Weather in Gjoa Haven

Canada     68°37′22″N   95°52′15″W
temp.,
°C
wind,
m/s
gust,
m/s
humid.,
%
clouds,
%
prec.,
mm/h
press.,
hPa
HPBL,
m
2 july, sat
sat200:00+2nne22100100 0.1 101418
03:00+2nne3394100 0.0 101530
06:00+2nne448732 0.0 101647
09:00+2nne34843 0.0 101749
12:00+3ne33830 0.0 101841
15:00+3ne22831 0.0 101944
18:00+3nne33814 0.0 101943
21:00+4nne34786 0.0 101922
3 july, sun
sun300:00+4n447832 0.0 102018
03:00+3n3378100 0.0 102117
06:00+4n337669 0.0 102117
09:00+5w127396 0.0 102139
12:00+4wsw3379100 0.0 102173
15:00+5wnw3471100 0.0 102067
18:00+4nne12795 0.0 102057
21:00+4ssw1280100 0.0 102036
4 july, mon
mon400:00+5nnw227822 0.0 101921
03:00+4nnw338013 0.0 101921
06:00+4nnw44845 0.0 101836
09:00+4n45725 0.0 101840
12:00+5n4566100 0.0 101745
15:00+5n456299 0.0 101756
18:00+5nnw456297 0.0 101640
21:00+5n45665 0.0 101642
5 july, tue
tue500:00+3n347880 0.0 101637
03:00+2nne33835 0.0 101718
06:00+3n22795 0.0 101717
09:00+4n12725 0.0 101735
12:00+3e12735 0.0 101743
15:00+4ssw11695 0.0 101744
18:00+5sw22645 0.0 101727
21:00+5w11643 0.0 101722
6 july, wed
wed600:00+5wnw22645 0.0 101715
03:00+4n22765 0.0 101814
06:00+3ne11825 0.0 101816
09:00+4se11815 0.0 101826
12:00+4ssw11785 0.0 101837
15:00+5ssw22765 0.0 101819
18:00+5s12755 0.0 101720
21:00+5ene00756 0.0 101618